Location: Borgo
(42.3939°N, 9.2791°E)
Time: 01:35:37
(UTC+00:00)

Cosmos 1937 Rocket - Pass Details

Date: 24 January 2021
Orbit: 747 x 780 km, 74.0° (Epoch: 08 March)

Event Time Altitude Azimuth Distance (km) Brightness Sun altitude
Rises 17:58:53 0° 192° (SSW) 3,238 7.1 -17.0°
Reaches altitude 10° 18:01:15 10° 191° (S) 2,318 6.2 -17.4°
Maximum altitude 18:06:30 73° 107° (ESE) 816 3.4 -18.4°
Enters shadow 18:10:46 16° 25° (NNE) 1,943 5.3 -19.1°
